User: anonymous   Login
Location: Columbia
(38.9520°N, 92.3340°W)
Time: 06:58:02
(UTC-05:00)
Language:

Cosmos 158 Rocket - Orbit

View from above orbital plane
View from above orbital plane
View from above satellite
View from above satellite

Ground track
Ground track

The orbit data is extracted from the following two-line orbital elements,

1  2802U 67045B   17232.93946179 +.00000108 +00000-0 +38842-4 0  9995
2  2802 074.0112 046.1490 0065614 084.9416 275.9225 14.43656707638324
Epoch (UTC): 20 August 2017 22:32:49
Eccentricity: 0.0065614
inclination: 74.0112°
perigee height: 699 km
apogee height: 793 km
right ascension of ascending node: 46.1490°
argument of perigee: 84.9416°
revolutions per day: 14.43656707
mean anomaly at epoch: 275.9225°
orbit number at epoch: 63832

The dashed part of the orbit path shows where the satellite is in the earth's shadow,  

DLR